Time,TemperatureF,DewpointF,PressureIn,WindDirection,WindDirectionDegrees,WindSpeedMPH,WindSpeedGustMPH,Humidity,HourlyPrecipIn,Conditions,Clouds,dailyrainin,SoftwareType,DateUTC
2013-05-04 00:13:00,50.5,42.0,30.43,East,93,9.0,14.0,72,0.00,,,0.00,weatherlink.com 1.10,2013-05-04 04:13:00,
2013-05-04 00:28:00,50.2,43.0,30.42,East,95,14.0,16.0,76,0.00,,,0.00,weatherlink.com 1.10,2013-05-04 04:28:00,
2013-05-04 00:43:00,49.9,43.0,30.42,East,89,10.0,15.0,76,0.00,,,0.00,weatherlink.com 1.10,2013-05-04 04:43:00,
2013-05-04 00:58:00,49.5,43.0,30.41,ESE,103,8.0,14.0,77,0.00,,,0.00,weatherlink.com 1.10,2013-05-04 04:58:00,
2013-05-04 01:13:00,48.7,43.0,30.41,ESE,102,3.0,8.0,80,0.00,,,0.00,weatherlink.com 1.10,2013-05-04 05:13:00,
2013-05-04 01:28:00,48.3,42.0,30.41,ESE,102,3.0,5.0,80,0.00,,,0.00,weatherlink.com 1.10,2013-05-04 05:28:00,
2013-05-04 01:43:00,47.3,42.0,30.41,ESE,102,0.0,3.0,82,0.00,,,0.00,weatherlink.com 1.10,2013-05-04 05:43:00,
2013-05-04 01:58:00,45.9,41.0,30.41,ESE,102,0.0,1.0,84,0.00,,,0.00,weatherlink.com 1.10,2013-05-04 05:58:00,
2013-05-04 02:13:00,44.6,41.0,30.40,ESE,102,2.0,2.0,86,0.00,,,0.00,weatherlink.com 1.10,2013-05-04 06:13:00,
2013-05-04 02:29:00,44.0,40.0,30.40,ESE,102,0.0,0.0,87,0.00,,,0.00,weatherlink.com 1.10,2013-05-04 06:29:00,
2013-05-04 02:44:00,43.8,41.0,30.40,ESE,102,1.0,3.0,88,0.00,,,0.00,weatherlink.com 1.10,2013-05-04 06:44:00,
2013-05-04 02:59:00,43.5,40.0,30.40,ESE,102,0.0,0.0,88,0.00,,,0.00,weatherlink.com 1.10,2013-05-04 06:59:00,
2013-05-04 03:14:00,44.4,41.0,30.40,ESE,102,0.0,5.0,87,0.00,,,0.00,weatherlink.com 1.10,2013-05-04 07:14:00,
2013-05-04 03:29:00,44.9,41.0,30.40,East,101,5.0,7.0,85,0.00,,,0.00,weatherlink.com 1.10,2013-05-04 07:29:00,
2013-05-04 03:44:00,44.9,41.0,30.40,East,98,6.0,8.0,85,0.00,,,0.00,weatherlink.com 1.10,2013-05-04 07:44:00,
2013-05-04 03:59:00,44.6,40.0,30.40,East,86,7.0,9.0,85,0.00,,,0.00,weatherlink.com 1.10,2013-05-04 07:59:00,
2013-05-04 04:14:00,44.6,40.0,30.40,East,80,3.0,10.0,85,0.00,,,0.00,weatherlink.com 1.10,2013-05-04 08:14:00,
2013-05-04 04:29:00,44.3,40.0,30.41,East,80,3.0,7.0,86,0.00,,,0.00,weatherlink.com 1.10,2013-05-04 08:29:00,
2013-05-04 04:44:00,44.2,41.0,30.41,North,11,1.0,8.0,87,0.00,,,0.00,weatherlink.com 1.10,2013-05-04 08:44:00,
2013-05-04 04:59:00,43.6,40.0,30.41,NE,55,0.0,3.0,88,0.00,,,0.00,weatherlink.com 1.10,2013-05-04 08:59:00,
2013-05-04 05:14:00,43.5,40.0,30.41,NNE,26,4.0,4.0,87,0.00,,,0.00,weatherlink.com 1.10,2013-05-04 09:14:00,
2013-05-04 05:29:00,43.4,39.0,30.41,NNE,30,0.0,5.0,85,0.00,,,0.00,weatherlink.com 1.10,2013-05-04 09:29:00,
2013-05-04 05:44:00,43.6,39.0,30.42,NE,51,2.0,4.0,85,0.00,,,0.00,weatherlink.com 1.10,2013-05-04 09:44:00,
2013-05-04 05:59:00,43.7,39.0,30.42,NE,37,0.0,5.0,84,0.00,,,0.00,weatherlink.com 1.10,2013-05-04 09:59:00,
2013-05-04 06:14:00,43.8,39.0,30.42,NE,35,2.0,5.0,84,0.00,,,0.00,weatherlink.com 1.10,2013-05-04 10:14:00,
2013-05-04 06:29:00,44.7,40.0,30.42,NE,51,2.0,9.0,83,0.00,,,0.00,weatherlink.com 1.10,2013-05-04 10:29:00,
2013-05-04 06:44:00,45.1,40.0,30.42,NE,46,6.0,11.0,81,0.00,,,0.00,weatherlink.com 1.10,2013-05-04 10:44:00,
2013-05-04 06:59:00,45.7,40.0,30.42,ENE,71,4.0,10.0,80,0.00,,,0.00,weatherlink.com 1.10,2013-05-04 10:59:00,
2013-05-04 07:14:00,45.8,40.0,30.42,East,80,5.0,10.0,80,0.00,,,0.00,weatherlink.com 1.10,2013-05-04 11:14:00,
2013-05-04 07:29:00,46.2,40.0,30.42,East,84,7.0,9.0,80,0.00,,,0.00,weatherlink.com 1.10,2013-05-04 11:29:00,
2013-05-04 07:44:00,46.4,40.0,30.43,East,86,7.0,11.0,79,0.00,,,0.00,weatherlink.com 1.10,2013-05-04 11:44:00,
2013-05-04 07:59:00,46.6,40.0,30.43,ENE,75,7.0,11.0,78,0.00,,,0.00,weatherlink.com 1.10,2013-05-04 11:59:00,
2013-05-04 08:14:00,46.7,40.0,30.43,ENE,77,9.0,9.0,78,0.00,,,0.00,weatherlink.com 1.10,2013-05-04 12:14:00,
2013-05-04 08:44:00,47.3,40.0,30.43,NE,49,6.0,8.0,77,0.00,,,0.00,weatherlink.com 1.10,2013-05-04 12:44:00,
2013-05-04 08:59:00,47.7,41.0,30.43,East,93,6.0,10.0,77,0.00,,,0.00,weatherlink.com 1.10,2013-05-04 12:59:00,
2013-05-04 09:14:00,47.9,41.0,30.43,ESE,108,7.0,10.0,77,0.00,,,0.00,weatherlink.com 1.10,2013-05-04 13:14:00,
2013-05-04 09:29:00,47.9,41.0,30.42,ESE,107,9.0,11.0,78,0.00,,,0.00,weatherlink.com 1.10,2013-05-04 13:29:00,
2013-05-04 09:44:00,48.2,41.0,30.42,East,101,10.0,11.0,76,0.00,,,0.00,weatherlink.com 1.10,2013-05-04 13:44:00,
2013-05-04 09:59:00,47.2,41.0,30.42,ESE,116,8.0,9.0,80,0.00,,,0.00,weatherlink.com 1.10,2013-05-04 13:59:00,
2013-05-04 10:14:00,47.5,41.0,30.42,ESE,119,8.0,10.0,79,0.00,,,0.00,weatherlink.com 1.10,2013-05-04 14:14:00,
2013-05-04 10:29:00,47.6,41.0,30.42,SE,129,6.0,10.0,79,0.00,,,0.00,weatherlink.com 1.10,2013-05-04 14:29:00,
2013-05-04 10:44:00,48.1,42.0,30.41,SE,127,7.0,10.0,79,0.00,,,0.00,weatherlink.com 1.10,2013-05-04 14:44:00,
2013-05-04 10:59:00,48.1,42.0,30.41,ESE,117,7.0,10.0,79,0.00,,,0.00,weatherlink.com 1.10,2013-05-04 14:59:00,
2013-05-04 11:14:00,48.7,42.0,30.41,SE,141,7.0,9.0,78,0.00,,,0.00,weatherlink.com 1.10,2013-05-04 15:14:00,
2013-05-04 11:29:00,49.0,42.0,30.41,SE,130,5.0,8.0,76,0.00,,,0.00,weatherlink.com 1.10,2013-05-04 15:29:00,
2013-05-04 11:44:00,49.4,41.0,30.40,ESE,115,8.0,10.0,73,0.00,,,0.00,weatherlink.com 1.10,2013-05-04 15:44:00,
2013-05-04 11:59:00,49.9,42.0,30.40,ESE,105,9.0,11.0,74,0.00,,,0.00,weatherlink.com 1.10,2013-05-04 15:59:00,
2013-05-04 12:14:00,50.7,42.0,30.39,ESE,104,8.0,10.0,72,0.00,,,0.00,weatherlink.com 1.10,2013-05-04 16:14:00,
2013-05-04 12:29:00,51.4,42.0,30.39,ESE,109,9.0,10.0,70,0.00,,,0.00,weatherlink.com 1.10,2013-05-04 16:29:00,
2013-05-04 12:44:00,52.2,42.0,30.38,ESE,106,8.0,11.0,68,0.00,,,0.00,weatherlink.com 1.10,2013-05-04 16:44:00,
2013-05-04 12:59:00,49.9,43.0,30.39,SSE,149,9.0,12.0,78,0.00,,,0.00,weatherlink.com 1.10,2013-05-04 16:59:00,
2013-05-04 13:14:00,50.4,44.0,30.38,SE,130,10.0,11.0,78,0.00,,,0.00,weatherlink.com 1.10,2013-05-04 17:14:00,
2013-05-04 13:29:00,50.2,45.0,30.38,SE,132,11.0,13.0,81,0.00,,,0.00,weatherlink.com 1.10,2013-05-04 17:29:00,
2013-05-04 13:44:00,49.6,44.0,30.38,SSE,155,10.0,14.0,81,0.00,,,0.00,weatherlink.com 1.10,2013-05-04 17:44:00,
2013-05-04 14:00:00,49.1,43.0,30.38,SSE,149,8.0,14.0,79,0.00,,,0.00,weatherlink.com 1.10,2013-05-04 18:00:00,
2013-05-04 14:15:00,49.2,43.0,30.38,SE,126,5.0,16.0,78,0.00,,,0.00,weatherlink.com 1.10,2013-05-04 18:15:00,
2013-05-04 14:30:00,49.3,43.0,30.38,SE,142,10.0,14.0,79,0.00,,,0.00,weatherlink.com 1.10,2013-05-04 18:30:00,
2013-05-04 14:45:00,50.0,43.0,30.38,SE,143,8.0,13.0,78,0.00,,,0.00,weatherlink.com 1.10,2013-05-04 18:45:00,
2013-05-04 15:00:00,49.1,43.0,30.38,SSE,154,7.0,16.0,79,0.00,,,0.00,weatherlink.com 1.10,2013-05-04 19:00:00,
2013-05-04 15:15:00,50.0,42.0,30.38,South,169,5.0,10.0,73,0.00,,,0.00,weatherlink.com 1.10,2013-05-04 19:15:00,
2013-05-04 15:30:00,49.5,42.0,30.37,SSE,148,7.0,10.0,74,0.00,,,0.00,weatherlink.com 1.10,2013-05-04 19:30:00,
2013-05-04 15:45:00,49.7,41.0,30.37,South,188,1.0,9.0,73,0.00,,,0.00,weatherlink.com 1.10,2013-05-04 19:45:00,
2013-05-04 16:00:00,50.0,41.0,30.37,SSE,163,1.0,9.0,72,0.00,,,0.00,weatherlink.com 1.10,2013-05-04 20:00:00,
2013-05-04 16:15:00,49.5,41.0,30.37,South,171,5.0,10.0,72,0.00,,,0.00,weatherlink.com 1.10,2013-05-04 20:15:00,
2013-05-04 16:30:00,49.4,41.0,30.36,SSE,153,1.0,10.0,73,0.00,,,0.00,weatherlink.com 1.10,2013-05-04 20:30:00,
2013-05-04 16:45:00,50.0,40.0,30.36,SSE,161,2.0,8.0,69,0.00,,,0.00,weatherlink.com 1.10,2013-05-04 20:45:00,
2013-05-04 17:00:00,49.3,40.0,30.36,SE,144,5.0,9.0,71,0.00,,,0.00,weatherlink.com 1.10,2013-05-04 21:00:00,
2013-05-04 17:15:00,49.3,40.0,30.36,South,180,4.0,9.0,71,0.00,,,0.00,weatherlink.com 1.10,2013-05-04 21:15:00,
2013-05-04 17:30:00,49.2,40.0,30.37,SSW,202,0.0,9.0,70,0.00,,,0.00,weatherlink.com 1.10,2013-05-04 21:30:00,
2013-05-04 17:45:00,49.0,39.0,30.36,SSW,196,3.0,8.0,69,0.00,,,0.00,weatherlink.com 1.10,2013-05-04 21:45:00,
2013-05-04 18:00:00,48.7,39.0,30.36,South,177,1.0,8.0,70,0.00,,,0.00,weatherlink.com 1.10,2013-05-04 22:00:00,
2013-05-04 18:15:00,48.5,38.0,30.36,South,183,0.0,8.0,68,0.00,,,0.00,weatherlink.com 1.10,2013-05-04 22:15:00,
2013-05-04 18:30:00,48.7,39.0,30.36,South,182,2.0,5.0,70,0.00,,,0.00,weatherlink.com 1.10,2013-05-04 22:30:00,
2013-05-04 18:45:00,47.5,40.0,30.36,South,182,3.0,6.0,74,0.00,,,0.00,weatherlink.com 1.10,2013-05-04 22:45:00,
2013-05-04 19:00:00,46.6,39.0,30.36,South,180,3.0,6.0,76,0.00,,,0.00,weatherlink.com 1.10,2013-05-04 23:00:00,
2013-05-04 19:15:00,46.4,40.0,30.36,South,180,0.0,5.0,77,0.00,,,0.00,weatherlink.com 1.10,2013-05-04 23:15:00,
2013-05-04 19:30:00,46.1,40.0,30.36,South,180,0.0,1.0,79,0.00,,,0.00,weatherlink.com 1.10,2013-05-04 23:30:00,
2013-05-04 19:45:00,45.9,39.0,30.37,South,180,0.0,4.0,77,0.00,,,0.00,weatherlink.com 1.10,2013-05-04 23:45:00,
2013-05-04 20:01:00,45.6,39.0,30.37,South,180,2.0,4.0,77,0.00,,,0.00,weatherlink.com 1.10,2013-05-05 00:01:00,
2013-05-04 20:15:00,45.2,39.0,30.37,South,180,1.0,4.0,79,0.00,,,0.00,weatherlink.com 1.10,2013-05-05 00:15:00,
2013-05-04 20:30:00,44.7,39.0,30.38,South,180,0.0,1.0,80,0.00,,,0.00,weatherlink.com 1.10,2013-05-05 00:30:00,
2013-05-04 20:44:00,44.2,39.0,30.38,South,180,3.0,4.0,81,0.00,,,0.00,weatherlink.com 1.10,2013-05-05 00:44:00,
2013-05-04 20:59:00,43.8,39.0,30.38,South,181,3.0,3.0,82,0.00,,,0.00,weatherlink.com 1.10,2013-05-05 00:59:00,
2013-05-04 21:14:00,43.2,38.0,30.38,South,181,0.0,4.0,83,0.00,,,0.00,weatherlink.com 1.10,2013-05-05 01:14:00,
2013-05-04 21:29:00,42.8,39.0,30.39,South,184,4.0,6.0,85,0.00,,,0.00,weatherlink.com 1.10,2013-05-05 01:29:00,
2013-05-04 21:44:00,42.7,39.0,30.38,SSW,197,4.0,6.0,87,0.00,,,0.00,weatherlink.com 1.10,2013-05-05 01:44:00,
2013-05-04 21:59:00,42.6,39.0,30.38,SSW,201,6.0,6.0,88,0.00,,,0.00,weatherlink.com 1.10,2013-05-05 01:59:00,
2013-05-04 22:14:00,42.5,40.0,30.38,SSW,202,2.0,5.0,89,0.00,,,0.00,weatherlink.com 1.10,2013-05-05 02:14:00,
2013-05-04 22:29:00,42.4,39.0,30.38,SSW,204,2.0,5.0,88,0.00,,,0.00,weatherlink.com 1.10,2013-05-05 02:29:00,
2013-05-04 22:44:00,42.5,39.0,30.38,SSW,206,3.0,6.0,87,0.00,,,0.00,weatherlink.com 1.10,2013-05-05 02:44:00,
2013-05-04 22:59:00,42.2,39.0,30.37,SSW,209,3.0,7.0,87,0.00,,,0.00,weatherlink.com 1.10,2013-05-05 02:59:00,
2013-05-04 23:14:00,41.9,38.0,30.38,SSW,210,4.0,7.0,86,0.00,,,0.00,weatherlink.com 1.10,2013-05-05 03:14:00,
2013-05-04 23:29:00,41.9,38.0,30.37,SSW,210,3.0,5.0,86,0.00,,,0.00,weatherlink.com 1.10,2013-05-05 03:29:00,
2013-05-04 23:44:00,41.8,38.0,30.37,SSW,210,3.0,6.0,85,0.00,,,0.00,weatherlink.com 1.10,2013-05-05 03:44:00,
2013-05-04 23:59:00,41.9,37.0,30.37,SSW,211,4.0,6.0,84,0.00,,,0.00,weatherlink.com 1.10,2013-05-05 03:59:00,